This is the latest recevied weather packets stored in our database for station/object BRIVER. If no packets are shown the sender has not sent any weather packets the latest 10 day(s).
| Time | Temp. | Humidity | Pressure | Rain* | Wind** | Luminosity | Snow |
|---|---|---|---|---|---|---|---|
| 1777579480 | 17.78° C | 43% | 1016.1 hPa | 0 mm | - | - | - |
| 1777579239 | 17.78° C | 42% | 1016.1 hPa | 0 mm | - | - | - |
| 1777578939 | 17.78° C | 43% | 1016.1 hPa | 0 mm | - | - | - |
| 1777578639 | 18.33° C | 43% | 1016.1 hPa | 0 mm | - | - | - |
| 1777578401 | 18.89° C | 43% | 1016.2 hPa | 0 mm | - | - | - |
| 1777578339 | 18.89° C | 44% | 1016.1 hPa | 0 mm | - | - | - |
| 1777578039 | 18.89° C | 42% | 1016.3 hPa | 0 mm | - | - | - |
| 1777577861 | 18.89° C | 43% | 1016.3 hPa | 0 mm | - | - | - |
| 1777577739 | 18.89° C | 43% | 1016.3 hPa | 0 mm | - | - | - |
| 1777577439 | 18.89° C | 44% | 1016.4 hPa | 0 mm | - | - | - |
| 1777577321 | 18.89° C | 45% | 1016.4 hPa | 0 mm | - | - | - |
| 1777577139 | 18.89° C | 45% | 1016.4 hPa | 0 mm | - | - | - |
| 1777576839 | 18.89° C | 44% | 1016.5 hPa | 0 mm | - | - | - |
| 1777576781 | 18.89° C | 44% | 1016.5 hPa | 0 mm | - | - | - |
| 1777576539 | 18.89° C | 45% | 1016.6 hPa | 0 mm | - | - | - |
| 1777576239 | 18.89° C | 40% | 1016.6 hPa | 0 mm | - | - | - |
| 1777575939 | 19.44° C | 43% | 1016.7 hPa | 0 mm | - | - | - |
| 1777575701 | 18.89° C | 44% | 1016.8 hPa | 0 mm | - | - | - |
| 1777575639 | 18.89° C | 44% | 1016.7 hPa | 0 mm | - | - | - |
| 1777575339 | 18.89° C | 45% | 1016.7 hPa | 0 mm | - | - | - |
| 1777575161 | 18.33° C | 46% | 1016.8 hPa | 0 mm | - | - | - |
| 1777575039 | 18.33° C | 46% | 1016.9 hPa | 0 mm | - | - | - |
| 1777574739 | 17.78° C | 46% | 1016.9 hPa | 0 mm | - | - | - |
| 1777574439 | 17.78° C | 43% | 1016.9 hPa | 0 mm | - | - | - |
| 1777574139 | 17.78° C | 45% | 1017 hPa | 0 mm | - | - | - |
* Rain latest hour (hover to see other rain measurements)
** Current wind speed in m/s (hover to see current wind gust speed)